Location: Krakow
(50.0830°N, 19.9170°E)
Time: 05:22:22
(UTC+01:00)

Vanguard 2 - Pass Details

Date: 18 December 2023
Orbit: 553 x 2919 km, 32.9° (Epoch: 24 February)

Event Time Altitude Azimuth Distance (km) Brightness Sun altitude
Rises 17:34:16 0° 235° (SW) 5,636 13.3 -17.3°
Reaches altitude 10° 17:37:56 10° 228° (SW) 4,914 12.6 -17.9°
Maximum altitude 17:51:16 39° 166° (SSE) 3,711 10.9 -20.0°
Enters shadow 18:03:41 17° 112° (ESE) 5,135 11.2 -21.9°
